Houlton, ME

12:38 AM EST on February 25, 2017 (GMT -0500)
Houlton International

Weather History for KHUL - June, 2013

Change the Weather History Date:

Friday, June 21, 2013

  Actual Average Record
Temperature  
Mean Temperature 61 °F 62 °F  
Max Temperature 77 °F 74 °F 93 °F (1941)
Min Temperature 45 °F 50 °F 34 °F (1995)
Degree Days  
Heating Degree Days 4 5  
Month to date heating degree days 158 145  
Since 1 June heating degree days 158 145  
Since 1 July heating degree days 8508 9152  
Cooling Degree Days 0 1  
Month to date cooling degree days 10 17  
Year to date cooling degree days 14 21  
Since 1 June cooling degree days 10 17  
Growing Degree Days 12 (Base 50)    
Moisture  
Dew Point 50 °F    
Average Humidity 69    
Maximum Humidity 100    
Minimum Humidity 38    
Precipitation  
Precipitation 0.02 in 0.12 in 1.40 in (1967)
Month to date precipitation 4.27 2.47  
Year to date precipitation 15.50 17.10  
Sea Level Pressure  
Sea Level Pressure 30.15 in    
Wind  
Wind Speed 4 mph (WSW)    
Max Wind Speed 17 mph    
Max Gust Speed 25 mph    
Visibility 10 miles    
Events Rain    
T = Trace of Precipitation, MM = Missing Value Source: NWS Daily Summary

Daily Weather History Graph

Daily Weather History Graph

Search for Another Location

Airport or City:

Trip Planner

Search our weather history database for the weather conditions in past years. The results will help you decide how hot, cold, wet, or windy it might be!

Date:

Astronomy

Jun. 21, 2013 Rise Set
Actual Time 4:39 AM EDT 8:26 PM EDT
Civil Twilight 4:01 AM EDT 9:04 PM EDT
Nautical Twilight 3:08 AM EDT 9:57 PM EDT
Astronomical Twilight 1:54 AM EDT 11:11 PM EDT
Moon 6:28 PM EDT (6/21) 2:57 AM EDT (6/21)
Length of Visible Light 17h 03m
Length of Day
15h 46m
Waxing Gibbous, 95% of the Moon is Illuminated
Jun 21
Waxing Gibbous
Jun 23
Full
Jun 30
Last Quarter
Jul 8
New
Jul 15
First Quarter

Hourly Weather History & Observations

Time (EDT) Temp. Dew Point Humidity Pressure Visibility Wind Dir Wind Speed Gust Speed Precip Events Conditions
12:53 AM 53.1 °F 46.9 °F 80% 30.17 in 10.0 mi SSW 4.6 mph - N/A   Clear
1:53 AM 53.1 °F 46.9 °F 80% 30.16 in 10.0 mi South 4.6 mph - N/A   Clear
2:53 AM 52.0 °F 46.9 °F 83% 30.15 in 10.0 mi South 5.8 mph - N/A   Clear
3:53 AM 48.9 °F 46.0 °F 90% 30.14 in 10.0 mi South 3.5 mph - N/A   Clear
4:53 AM 48.0 °F 46.0 °F 93% 30.14 in 10.0 mi South 5.8 mph - N/A   Clear
5:53 AM 53.1 °F 48.0 °F 83% 30.15 in 10.0 mi SSW 5.8 mph - N/A   Scattered Clouds
6:53 AM 57.0 °F 50.0 °F 77% 30.15 in 10.0 mi SSW 4.6 mph - N/A   Clear
7:53 AM 62.1 °F 50.0 °F 65% 30.15 in 10.0 mi SW 6.9 mph - N/A   Partly Cloudy
8:53 AM 66.0 °F 52.0 °F 60% 30.15 in 10.0 mi Variable 4.6 mph - N/A   Mostly Cloudy
9:53 AM 68.0 °F 51.1 °F 55% 30.16 in 10.0 mi West 6.9 mph - N/A   Overcast
10:53 AM 69.1 °F 52.0 °F 54% 30.17 in 10.0 mi North 9.2 mph - N/A   Overcast
11:53 AM 68.0 °F 52.0 °F 56% 30.17 in 10.0 mi NNW 4.6 mph - N/A   Mostly Cloudy
12:53 PM 64.0 °F 53.1 °F 67% 30.16 in 5.0 mi Calm Calm - 0.01 in Rain Light Rain
1:53 PM 73.0 °F 55.9 °F 55% 30.14 in 10.0 mi West 9.2 mph - 0.00 in   Clear
2:53 PM 75.9 °F 52.0 °F 43% 30.11 in 10.0 mi West 8.1 mph - N/A   Scattered Clouds
3:53 PM 68.0 °F 55.9 °F 65% 30.12 in 10.0 mi NNE 4.6 mph - 0.00 in Rain Light Rain
4:53 PM 75.9 °F 51.1 °F 42% 30.11 in 10.0 mi West 8.1 mph - 0.00 in   Clear
5:53 PM 75.9 °F 48.9 °F 38% 30.10 in 10.0 mi West 6.9 mph - 0.01 in   Clear
6:53 PM 75.0 °F 48.9 °F 40% 30.12 in 10.0 mi NW 3.5 mph - N/A   Clear
7:53 PM 68.0 °F 52.0 °F 56% 30.13 in 10.0 mi Calm Calm - N/A   Clear
8:53 PM 59.0 °F 54.0 °F 83% 30.15 in 10.0 mi Calm Calm - N/A   Clear
9:53 PM 53.1 °F 51.1 °F 93% 30.17 in 10.0 mi Calm Calm - N/A   Clear
10:53 PM 48.9 °F 48.0 °F 97% 30.18 in 10.0 mi Calm Calm - N/A   Clear
11:53 PM 50.0 °F 48.0 °F 93% 30.19 in 10.0 mi Calm Calm - N/A   Clear